GOES 18

Last updated on Tue Sep 22 2026 00:02:53 GMT+0000 (Coordinated Universal Time)

1 51850U 22021A 26264.49889953 .00000093 00000+0 00000+0 0 9991 2 51850 0.0413 341.8297 0000235 234.7661 186.3976 1.00271595 7559
UTC large
Height (km)
Speed (km/s)
/
Latitude / Longitude
Inclination (degrees)
Orbital Period (minutes)
Azimuth
Elevation
Range (km)
Doppler Factor

Next 0 passes for location: London (51.5072 / 0.1276)

No passes found over London.
GOES 18